Location: Campo Alegre
(10.4289°N, 66.6519°W)
Time: 00:09:31
(UTC+00:00)

Cosmos 1076 Rocket - Pass Details

Date: 29 May 2024
Orbit: 585 x 608 km, 82.5° (Epoch: 21 June)

Event Time Altitude Azimuth Distance (km) Brightness Sun altitude
Rises 23:04:56 0° 357° (N) 2,820 7.3 -5.4°
Reaches altitude 10° 23:07:08 10° 359° (N) 1,923 6.4 -5.9°
Maximum altitude 23:11:23 80° 85° (E) 609 3.5 -6.9°
Drops below altitude 10° 23:15:40 10° 173° (S) 1,938 5.8 -7.8°
Sets 23:17:53 0° 174° (S) 2,844 6.7 -8.3°
